STARLINK-1845 (47135 NORAD) Tracking and Keplerian Element Data
This shows tracking and keplerian element data for the satellite.
Feedback or suggestion? Click here.
Element | Value |
Catalog | 47135 |
Name | STARLINK-1845 |
Epoch Orbit | 1589 |
Epoch Day | 60.91667824 |
Epoch Year | 2021 |
RAAN | 243.7676 |
Inclination | 53.05 |
Eccentricity | 0.0001464 |
Argument of Perigee | 79.3411 |
Mean Anonmoly | 281.6571 |
Mean Motion | 15.06371396 |
Decay Rate | 0.00036721 |
L1 | 1 47135U 20088P 21060.91667824 .00036721 00000-0 24732-2 0 9999 |
L2 | 2 47135 53.0500 243.7676 0001464 79.3411 281.6571 15.06371396 15894 |
Live tracking and technical data element details for STARLINK-1845 (NORAD 47135). STARLINK-1845 can be tracked NOW for your location showing map with azimuth and elevation plus other details from your city location.
Track the satellite on the map from your city or location and see movement details for azimuth, elevation, latitude, longitude, range, height, and movement on the map or in text.
IsCatalogInMostPopularTable: catalog: 47135, numindb: 27
Update: records affected: 1
GetName: 47135 STARLINK-1845
Hit Count: updated at: Tue, 02 Mar 2021 13:36:20 GMT